This demonstration page uses our WeatherBlox Daily Observations layout. Learn more.

Left ArrowRight Arrow

39.51506, -84.39828

Hourly Observations for January 3, 2015

Temp ( °F °C ) Dew Point ( °F °C ) Humidity (%) Winds ( mph kmh ) Pressure ( in mb ) Visibility ( mi km ) Precip ( " mm )
12:53 am 00:53 Cloudy 34 1.1 30 -1.1 85 85 ESE 8 13 30.24 1024 10 16 0.00 0.00
1:53 am 01:53 Cloudy with Light Rain 34 1.1 30 -1.1 85 85 E 6 9 30.23 1024 6 10 0.00 0.03
2:53 am 02:53 Cloudy with Light Rain 34 1.1 32 0 92 92 ESE 9 15 30.20 1023 5 8 0.06 1.52
3:53 am 03:53 Cloudy with Light Rain 35 1.7 33 0.6 93 93 ESE 12 19 30.16 1021 5 8 0.06 1.52
4:01 am 04:01 Cloudy with Rain 35 1.7 33 0.6 93 93 ESE 12 19 30.18 1022 5 8 0.02 0.51
4:53 am 04:53 Cloudy with Light Rain 35 1.7 33 0.6 93 93 ESE 10 17 30.12 1020 3 5 0.09 2.29
5:17 am 05:17 Cloudy with Light Rain 35 1.7 34 1.1 96 96 ESE 9 15 30.15 1021 3 5 0.02 0.51
5:26 am 05:26 Cloudy with Rain 35 1.7 33 0.6 93 93 ESE 10 17 30.15 1021 3 4 0.04 1.02
5:38 am 05:38 Cloudy with Rain 35 1.7 34 1.1 96 96 SE 12 19 30.15 1021 3 4 0.07 1.78
5:53 am 05:53 Cloudy with Rain 36 2.2 35 1.7 97 97 SE 9 15 30.12 1020 3 4 0.13 3.30
6:08 am 06:08 Cloudy with Rain 36 2.2 35 1.7 97 97 SE 12 19 30.12 1020 3 5 0.05 1.27
6:53 am 06:53 Cloudy with Rain 37 2.8 36 2.2 96 96 SE 14 22 30.07 1018 5 8 0.14 3.56
7:00 am 07:00 Cloudy with Light Rain 37 2.8 36 2.2 96 96 SE 10 17 30.12 1020 5 8 0.00 0.03
7:53 am 07:53 Cloudy with Light Rain 39 3.9 38 3.3 96 96 SE 10 17 30.04 1017 8 13 0.06 1.52
8:26 am 08:26 Cloudy with Light Rain 39 3.9 39 3.9 100 100 SSE 10 17 30.09 1019 8 13 0.01 0.25
8:53 am 08:53 Cloudy with Light Rain 41 5 40 4.4 96 96 SSE 14 22 30.04 1017 4 6 0.02 0.51
9:53 am 09:53 Cloudy with Mist and Fog 43 6.1 42 5.6 97 97 SSE 12 19 30.02 1017 3 4 0.00 0.03
10:12 am 10:12 Cloudy with Mist and Fog 44 6.7 43 6.1 96 96 S 13 20 30.03 1017 4 6 0.01 0.25
10:49 am 10:49 Cloudy with Mist and Fog 45 7 43 6 93 93 S 13 20 30.00 1016 2 3 0.01 0.25
10:53 am 10:53 Cloudy with Mist and Fog 44 6.7 43 6.1 96 96 S 12 19 30.00 1016 2 2 0.01 0.25
11:29 am 11:29 Cloudy with Mist and Fog 44 6.7 44 6.7 100 100 S 7 11 29.97 1015 3 5 0.00 0.00
11:44 am 11:44 Cloudy with Light Rain 45 7.2 44 6.7 97 97 S 9 15 29.97 1015 3 4 0.00 0.03
11:53 am 11:53 Cloudy with Rain 45 7.2 44 6.7 97 97 S 8 13 29.96 1014 2 3 0.03 0.76
12:53 pm 12:53 Cloudy with Heavy Rain 47 8.3 46 7.8 97 97 S 7 11 29.93 1014 1 2 0.31 7.87
1:06 pm 13:06 Cloudy with Heavy Rain 48 8.9 47 8.3 96 96 S 5 7 29.94 1014 1 1 0.15 3.81
1:18 pm 13:18 Cloudy with Rain 48 8.9 47 8.3 96 96 SW 5 7 29.94 1014 2 2 0.20 5.08
1:36 pm 13:36 Cloudy with Heavy Rain 48 8.9 48 8.9 100 100 S 8 13 29.91 1013 1 1 0.29 7.37
1:46 pm 13:46 Cloudy with Rain 50 10 49 9.4 96 96 SSW 9 15 29.91 1013 1 2 0.34 8.64
1:53 pm 13:53 Cloudy with Rain 50 10 49 9.4 96 96 SSW 8 13 29.88 1012 2 3 0.37 9.40
2:04 pm 14:04 Cloudy with Light Rain 50 10 49 9.4 96 96 S 12 19 29.91 1013 3 4 0.02 0.51
2:11 pm 14:11 Cloudy with Light Rain 50 10 49 9.4 96 96 S 10 17 29.91 1013 4 6 0.03 0.76
2:53 pm 14:53 Cloudy with Light Rain 50 10 49 9.4 96 96 SSE 6 9 29.86 1011 3 4 0.09 2.29
3:40 pm 15:40 Cloudy with Rain 51 10.6 50 10 96 96 SSE 7 11 29.83 1010 2 2 0.15 3.81
3:50 pm 15:50 Cloudy with Rain 52 11 50 10 94 94 SSE 9 15 29.80 1009 3 4 0.17 4.32
3:53 pm 15:53 Cloudy with Light Rain 51 10.6 50 10 96 96 SSE 9 15 29.82 1010 3 4 0.18 4.57
4:03 pm 16:03 Cloudy with Light Rain 52 11.1 51 10.6 97 97 S 10 17 29.80 1009 3 5 0.01 0.25
4:18 pm 16:18 Cloudy with Rain 52 11.1 52 11.1 100 100 SSE 12 19 29.80 1009 4 6 0.03 0.76
4:53 pm 16:53 Cloudy 54 12.2 54 12.2 100 100 S 10 17 29.80 1009 10 16 0.04 1.02
5:10 pm 17:10 Cloudy 55 12.8 54 12.2 96 96 S 12 19 29.80 1009 10 16 0.00 0.00
5:41 pm 17:41 Cloudy 57 13.9 55 12.8 93 93 SSW 13 20 29.80 1009 10 16 0.00 0.00
5:53 pm 17:53 Cloudy 58 14.4 56 13.3 93 93 SSW 13 20 29.80 1009 10 16 0.00 0.00
6:11 pm 18:11 Cloudy 59 15 56 13.3 90 90 SSW 13 20 29.80 1009 10 16 0.00 0.00
6:53 pm 18:53 Cloudy with Light Rain 59 15 56 13.3 90 90 SSW 13 20 29.82 1010 5 8 0.00 0.03
7:08 pm 19:08 Cloudy 58 14.4 57 13.9 97 97 SSW 10 17 29.83 1010 8 13 0.00 0.03
7:25 pm 19:25 Cloudy 58 14.4 57 13.9 97 97 SSW 8 13 29.80 1009 9 14 0.00 0.03
7:32 pm 19:32 Cloudy 58 14.4 57 13.9 97 97 SSW 13 20 29.80 1009 10 16 0.00 0.03
7:53 pm 19:53 Cloudy 59 15 57 13.9 93 93 SSW 14 22 29.81 1010 10 16 0.00 0.03
8:13 pm 20:13 Cloudy 59 15 57 13.9 93 93 SSW 12 19 29.80 1009 10 16 0.00 0.00
8:45 pm 20:45 Cloudy 58 14.4 57 13.9 97 97 SSW 12 19 29.80 1009 9 14 0.01 0.25
8:50 pm 20:50 Cloudy with Light Rain 57 14 57 14 100 100 SSW 9 15 29.80 1009 6 10 0.01 0.25
8:53 pm 20:53 Cloudy with Light Rain 58 14.4 57 13.9 97 97 SSW 10 17 29.81 1009 4 6 0.01 0.25
9:27 pm 21:27 Cloudy with Light Rain 58 14.4 57 13.9 97 97 SSW 10 17 29.80 1009 5 8 0.02 0.51
9:38 pm 21:38 Cloudy 58 14.4 57 13.9 97 97 SSW 12 19 29.80 1009 10 16 0.02 0.51
9:53 pm 21:53 Cloudy 59 15 57 13.9 93 93 SSW 13 20 29.80 1009 10 16 0.02 0.51
10:06 pm 22:06 Cloudy 59 15 57 13.9 93 93 SSW 12 19 29.80 1009 10 16 0.00 0.00
10:53 pm 22:53 Cloudy 59 15 57 13.9 93 93 SSW 14 22 29.78 1008 10 16 0.00 0.00
11:53 pm 23:53 Cloudy 59 15 57 13.9 93 93 SSW 12 19 29.77 1008 10 16 0.00 0.00

Powered by AerisWeather